Weather History for Marianna, FL

Change the Weather History Date:

Saturday, January 12, 2013

  Actual Average Record
Temperature  
Mean Temperature 69 °F 50 °F  
Max Temperature 79 °F 61 °F 79 °F (2000)
Min Temperature 58 °F 39 °F 27 °F (2004)
Degree Days  
Heating Degree Days 0    
Month to date heating degree days 98  
Since 1 July heating degree days 589  
Cooling Degree Days 4    
Month to date cooling degree days 16  
Year to date cooling degree days 16  
Growing Degree Days 18 (Base 50)    
Moisture  
Dew Point 61 °F    
Average Humidity 76    
Maximum Humidity 100    
Minimum Humidity 52    
Precipitation  
Precipitation 0.00 in 0.14 in 0.87 in (2002)
Month to date precipitation 0.43 1.87  
Year to date precipitation 0.43 1.87  
Sea Level Pressure  
Sea Level Pressure 30.12 in    
Wind  
Wind Speed 5 mph (SSE)    
Max Wind Speed 16 mph    
Max Gust Speed 20 mph    
Visibility 7 miles    
Events Fog    
T = Trace of Precipitation, MM = Missing Value Source: NWS Daily Summary

Daily Weather History Graph

Daily Weather History Graph

Search for Another Location

Airport:

Trip Planner

Search our weather history database for the weather conditions in past years. The results will help you decide how hot, cold, wet, or windy it might be!

Date:

Astronomy

Jan. 12, 2013 Rise Set
Actual Time 6:39 AM CST 4:59 PM CST
Civil Twilight 6:13 AM CST 5:25 PM CST
Nautical Twilight 5:43 AM CST 5:55 PM CST
Astronomical Twilight 5:14 AM CST 6:24 PM CST
Moon 7:04 AM CST (1/12) 6:18 PM CST (1/12)
Length of Visible Light 11h 12m
Length of Day
10h 19m
New Moon, 1% of the Moon is Illuminated
Jan 12
New Moon
Jan 18
First Quarter
Jan 26
Full
Feb 3
Last Quarter
Feb 10
New

Hourly Weather History & Observations

Time (CST) Temp. Dew Point Humidity Pressure Visibility Wind Dir Wind Speed Gust Speed Precip Events Conditions
12:23 AM 60.8 °F 60.8 °F 100% 30.15 in 1.5 mi Calm Calm - N/A   Clear
12:25 AM 60.8 °F 60.8 °F 100% 30.14 in 0.8 mi Calm Calm - N/A   Mist
12:53 AM 59.0 °F 57.9 °F 96% 30.14 in 0.5 mi Calm Calm - N/A Fog Fog
12:58 AM 59.0 °F 59.0 °F 100% 30.15 in 1.5 mi Calm Calm - N/A   Scattered Clouds
1:00 AM 59.0 °F 59.0 °F 100% 30.15 in 4.0 mi Calm Calm - N/A   Scattered Clouds
1:34 AM 59.0 °F 57.2 °F 94% 30.15 in 8.0 mi SSE 3.5 mph - N/A   Unknown
1:53 AM 61.0 °F 61.0 °F 100% 30.14 in 8.0 mi SSE 4.6 mph - N/A   Clear
2:53 AM 61.0 °F 61.0 °F 100% 30.13 in 7.0 mi Calm Calm - N/A   Partly Cloudy
3:00 AM 60.8 °F 60.8 °F 100% 30.14 in 2.0 mi Calm Calm - N/A   Mostly Cloudy
3:05 AM 59.0 °F 59.0 °F 100% 30.13 in 0.8 mi Calm Calm - N/A   Mostly Cloudy
3:53 AM 60.1 °F 60.1 °F 100% 30.12 in 0.2 mi SE 3.5 mph - N/A Fog Fog
4:41 AM 60.8 °F 60.8 °F 100% 30.11 in 1.2 mi SSE 4.6 mph - N/A   Overcast
4:53 AM 61.0 °F 61.0 °F 100% 30.12 in 2.5 mi SSE 3.5 mph - N/A   Overcast
5:02 AM 60.8 °F 60.8 °F 100% 30.12 in 4.0 mi SSE 4.6 mph - N/A   Overcast
5:53 AM 61.0 °F 61.0 °F 100% 30.13 in 6.0 mi SSE 3.5 mph - N/A   Overcast
6:33 AM 60.8 °F 59.0 °F 94% 30.14 in 9.0 mi Calm Calm - N/A   Scattered Clouds
6:53 AM 59.0 °F 59.0 °F 100% 30.14 in 4.0 mi Calm Calm - 0.01 in   Clear
7:13 AM 59.0 °F 59.0 °F 100% 30.14 in 2.5 mi Calm Calm - N/A   Clear
7:20 AM 60.8 °F 59.0 °F 94% 30.14 in 6.0 mi Calm Calm - N/A   Clear
7:53 AM 61.0 °F 60.1 °F 97% 30.15 in 9.0 mi Calm Calm - N/A   Clear
8:53 AM 64.9 °F 61.0 °F 87% 30.17 in 10.0 mi South 4.6 mph - N/A   Clear
9:53 AM 71.1 °F 64.0 °F 78% 30.17 in 10.0 mi SSE 9.2 mph - N/A   Clear
10:53 AM 73.9 °F 63.0 °F 68% 30.14 in 10.0 mi South 8.1 mph - N/A   Partly Cloudy
11:15 AM 77.0 °F 62.6 °F 61% 30.13 in 10.0 mi South 8.1 mph - N/A   Mostly Cloudy
11:23 AM 77.0 °F 62.6 °F 61% 30.13 in 10.0 mi SSW 10.4 mph - N/A   Scattered Clouds
11:53 AM 78.1 °F 61.0 °F 56% 30.12 in 10.0 mi South 8.1 mph - N/A   Scattered Clouds
12:53 PM 77.0 °F 59.0 °F 54% 30.09 in 10.0 mi South 9.2 mph - N/A   Scattered Clouds
1:53 PM 78.1 °F 59.0 °F 52% 30.09 in 10.0 mi South 8.1 mph - N/A   Partly Cloudy
2:53 PM 77.0 °F 59.0 °F 54% 30.08 in 10.0 mi South 9.2 mph - N/A   Mostly Cloudy
3:53 PM 77.0 °F 60.1 °F 56% 30.06 in 10.0 mi Variable 5.8 mph - N/A   Scattered Clouds
4:53 PM 73.9 °F 61.0 °F 64% 30.07 in 10.0 mi SSE 4.6 mph - N/A   Mostly Cloudy
5:53 PM 72.0 °F 62.1 °F 71% 30.07 in 10.0 mi SE 5.8 mph - N/A   Clear
7:53 PM 69.1 °F 64.0 °F 84% 30.08 in 10.0 mi SSE 5.8 mph - N/A   Mostly Cloudy
8:53 PM 68.0 °F 64.0 °F 87% 30.07 in 10.0 mi South 3.5 mph - N/A   Partly Cloudy
9:12 PM 68.0 °F 64.4 °F 88% 30.08 in 10.0 mi South 4.6 mph - N/A   Mostly Cloudy
9:36 PM 68.0 °F 64.4 °F 88% 30.08 in 10.0 mi SSE 4.6 mph - N/A   Overcast
9:53 PM 68.0 °F 64.9 °F 90% 30.08 in 10.0 mi South 4.6 mph - N/A   Overcast
10:53 PM 68.0 °F 64.9 °F 90% 30.06 in 10.0 mi SSE 6.9 mph - N/A   Overcast
11:15 PM 66.2 °F 64.4 °F 94% 30.06 in 10.0 mi SSE 4.6 mph - N/A   Scattered Clouds
11:53 PM 66.0 °F 64.0 °F 93% 30.05 in 10.0 mi SSE 4.6 mph - N/A   Partly Cloudy